Zurück zum Katalog

FENGYUN 1C DEB

AktivPO
NORAD 38130·DEBRIS·🇨🇳 China

Gestartet May 10, 1999 von Taiyuan Satellite Launch Center

Loading…

Nächste Überflüge (nächste 24 Stunden)

TLE

AktuellSource: Space-Track

Epoche: Sep 14, 2026, 08:40 UTC

1 38130U 99025EQB 26257.36162218  .00001231  00000-0  10771-2 0  9996
2 38130  98.5889 288.2325 0205714 202.3793 156.8288 13.78190585730789

Verfolge FENGYUN 1C DEB in Echtzeit mit AllMySat

Download on the App Store